Wind_Speed
25 21 19 20 21 21 20 20 20 18 17 16 16 17 17 17 16 15 14 14 13 14 15 16 16 16 16 15 15 14 14 13 13 13 13 14 14 14 15 15 14 14 14 14 13 12 11 12 11 11 11 11 10 9 9 8 7 6 6 7 7 7 7 8 9 8 8 9 10 11 12 13 14 15 16 17 18 19 19 18 18 18 18 18 17
26 25 23 23 24 25 22 21 22 20 17 16 16 16 16 16 16 16 15 15 15 15 15 16 16 16 16 15 15 15 14 14 13 13 13 14 14 14 15 15 15 14 14 14 14 13 12 12 11 10 10 10 10 9 9 9 7 7 7 8 8 8 7 8 9 9 10 11 12 13 14 15 16 17 18 19 19 19 19 19 18 18 19 18 18
26 28 27 26 27 27 24 22 24 22 18 16 16 16 16 17 17 17 17 17 17 17 16 16 16 17 16 16 16 15 15 14 13 12 12 12 12 13 14 15 15 14 14 14 14 13 13 12 11 10 10 10 9 10 10 10 8 7 7 8 9 8 8 9 10 11 12 13 13 14 15 16 17 18 19 20 20 20 20 19 19 19 19 19 19
25 26 28 28 28 28 27 25 26 25 20 18 17 18 18 18 19 18 18 19 19 19 18 16 16 16 17 17 16 16 16 15 15 14 13 13 12 13 14 15 15 14 14 14 14 14 13 12 11 10 10 10 9 10 10 9 7 7 8 9 9 10 9 10 11 13 14 13 14 14 16 17 18 19 20 20 20 20 20 20 20 20 20 21 21
26 25 26 28 28 29 29 28 27 26 23 20 19 20 20 20 20 20 20 21 21 21 19 17 16 16 16 17 17 17 17 17 16 16 15 15 15 15 15 16 15 15 15 15 15 15 14 12 11 11 12 11 10 12 11 9 8 8 9 10 11 11 11 12 13 14 14 14 14 15 16 17 18 19 20 20 21 21 21 20 20 21 22 22 23
24 24 25 28 29 30 32 31 29 28 26 23 22 21 21 21 21 21 21 22 23 23 21 19 18 17 17 17 17 17 17 18 18 18 18 18 17 17 17 17 17 17 17 17 17 16 15 14 13 13 13 12 12 14 14 11 10 10 11 12 13 13 14 14 15 15 15 16 16 16 17 18 20 20 20 20 20 21 21 21 21 21 22 24 25
25 25 27 29 31 31 32 32 31 29 28 25 24 23 23 22 22 22 22 23 24 25 24 22 21 20 20 19 18 18 19 20 20 20 19 19 19 19 19 19 19 19 19 18 18 18 17 17 16 16 15 14 14 16 15 14 13 13 14 15 15 16 17 17 17 17 17 17 18 19 19 19 21 22 22 21 20 20 21 22 22 23 24 25 26
29 29 30 32 31 29 28 30 32 30 29 28 26 24 23 22 22 22 22 23 24 26 26 25 23 23 22 20 20 21 21 21 21 20 19 19 20 20 20 20 21 22 21 20 20 19 19 18 18 18 18 17 17 17 17 16 16 17 18 18 18 18 19 20 20 20 20 20 20 21 22 22 23 23 24 23 22 22 21 21 23 25 26 27 27
31 31 32 33 32 30 28 31 34 32 30 29 27 26 25 23 22 22 24 25 25 26 26 26 25 24 23 23 24 24 23 22 22 21 20 20 21 21 21 22 23 23 22 22 22 21 21 20 20 20 21 20 19 19 19 19 19 20 21 22 21 21 22 22 22 22 22 23 23 23 24 25 26 26 26 25 24 24 23 23 24 26 28 29 30
32 32 32 32 33 32 29 31 36 34 31 30 29 27 27 25 23 24 25 26 26 26 26 26 25 24 25 27 27 27 26 25 24 23 22 22 22 22 23 23 24 24 23 23 23 23 23 22 23 23 23 22 21 21 22 22 22 23 24 24 25 24 24 25 25 25 25 25 26 26 26 27 27 28 29 28 27 26 26 26 26 28 30 32 33
32 32 32 32 34 34 32 33 36 36 32 31 30 29 28 27 26 27 27 26 26 27 26 26 26 25 26 28 28 28 28 27 26 25 25 24 23 23 23 24 24 24 24 24 25 25 25 24 25 25 24 24 24 24 24 24 25 25 25 26 27 27 27 27 27 27 28 28 28 29 29 29 29 30 30 31 30 29 28 29 29 30 32 33 34
32 31 31 32 33 34 32 31 35 37 33 30 30 31 30 30 30 29 29 28 27 27 27 27 26 26 26 27 27 27 28 28 27 27 26 25 24 24 23 23 24 24 25 26 26 26 26 25 26 27 26 26 26 26 26 26 26 26 27 28 28 29 29 29 30 30 30 31 31 31 31 32 32 32 33 33 34 33 32 31 32 34 35 35 36
33 31 31 32 32 32 30 31 35 37 37 34 32 32 32 32 32 31 30 29 28 27 28 27 26 25 26 27 27 28 28 28 28 28 27 26 25 24 23 23 24 25 25 26 26 26 27 27 28 28 27 27 28 28 27 27 28 28 29 29 30 31 31 32 33 33 33 33 34 34 34 34 34 34 35 36 36 35 35 34 35 36 37 38 39
32 32 31 32 32 32 32 34 35 38 41 38 33 32 33 34 33 32 31 30 30 29 29 28 27 27 27 28 29 30 30 30 29 28 28 27 25 24 23 24 25 25 26 27 27 27 28 28 29 29 29 29 29 29 29 30 30 31 32 32 32 33 34 34 35 36 36 36 36 36 36 36 36 36 37 38 37 37 38 38 38 40 39 40 41
32 33 34 34 34 33 34 35 35 37 40 38 33 31 33 34 33 32 31 31 31 32 32 31 30 30 31 31 32 33 32 31 29 28 27 27 26 26 25 26 26 26 27 28 28 29 29 29 30 31 30 30 31 32 32 33 33 34 34 35 35 36 36 37 38 38 38 38 38 38 38 37 38 39 40 40 39 40 40 41 41 43 43 43 43
32 33 35 36 34 32 33 34 35 35 37 39 35 33 33 33 33 32 32 32 33 32 33 33 33 33 33 34 35 35 34 32 30 29 28 28 28 28 28 28 27 27 28 29 29 30 30 31 31 32 32 32 33 34 35 35 35 36 36 37 38 38 39 39 40 40 39 39 40 40 40 40 41 43 44 43 43 43 44 44 44 45 45 45 45
29 33 38 39 37 35 34 35 35 34 36 37 35 33 32 32 32 32 33 33 33 32 32 33 33 33 32 32 32 33 32 32 31 30 29 29 29 30 30 29 28 29 30 30 30 31 32 32 33 34 34 34 34 35 36 36 37 37 38 39 40 40 41 42 42 41 40 41 41 42 43 44 45 46 46 46 46 47 48 48 48 48 49 49 48
33 35 35 34 36 37 36 36 37 37 38 37 36 35 33 31 31 31 31 31 30 29 31 31 31 31 29 28 29 30 31 32 32 31 30 29 30 31 30 29 29 30 31 31 31 32 32 32 33 34 35 35 35 36 37 38 38 39 40 41 41 42 43 43 43 43 43 43 44 45 46 47 48 48 48 49 49 49 50 51 51 53 54 53 52
35 38 32 29 33 35 34 37 40 41 41 40 39 38 36 34 33 31 31 31 29 30 32 31 30 30 29 28 29 30 31 32 33 32 31 30 30 31 30 30 30 31 32 32 32 32 33 33 33 34 34 35 36 37 38 39 39 40 41 42 43 44 45 45 45 46 46 46 47 48 49 50 50 50 51 51 51 52 53 55 56 57 57 57 57
26 32 33 33 34 34 35 37 40 40 41 40 40 39 39 38 37 34 33 33 34 35 35 32 30 30 30 30 30 31 31 33 33 33 33 31 31 31 31 31 32 33 33 34 33 33 33 32 33 34 34 36 37 38 39 39 40 41 42 43 44 45 46 46 47 47 47 48 50 51 52 52 53 53 53 53 53 55 57 59 60 61 61 62 62
19 23 29 33 33 34 36 38 39 40 40 40 40 42 42 42 41 38 37 37 36 37 36 33 31 31 31 31 32 31 32 33 34 34 34 33 33 33 33 33 34 34 34 35 35 35 34 32 31 32 35 37 39 40 41 41 41 41 43 44 45 46 47 48 48 49 50 51 52 54 55 55 55 55 56 56 58 60 61 62 63 64 65 66 66
19 18 22 29 34 36 37 39 39 40 40 41 41 41 42 43 42 40 38 37 37 37 35 32 31 32 32 33 32 32 32 33 33 34 34 34 35 35 35 35 35 34 34 35 36 37 37 34 33 33 36 38 41 42 43 44 44 44 45 46 47 48 48 48 49 51 53 55 56 57 58 59 60 60 61 63 65 66 67 67 67 67 68 68 68
20 18 17 21 27 31 34 35 35 34 34 36 38 39 40 41 40 38 37 38 37 34 32 31 32 32 33 33 33 33 33 33 34 34 34 35 35 35 36 36 36 35 35 35 36 38 39 39 39 39 40 41 42 43 44 45 46 47 49 49 50 50 50 52 54 56 58 59 61 61 62 64 65 66 67 69 70 71 71 72 72 71 71 71 71
22 20 19 19 20 21 24 26 27 27 27 27 29 32 35 38 37 36 36 36 35 32 31 31 31 31 32 32 33 34 34 35 35 35 35 34 34 35 35 36 36 36 36 37 38 39 41 42 43 43 44 45 47 48 48 49 49 50 51 52 53 55 56 57 59 60 60 62 63 64 65 66 68 69 70 71 72 72 73 74 74 74 74 74 75
23 22 21 22 22 21 20 20 21 21 20 19 21 25 30 33 34 34 33 32 31 30 30 29 29 30 31 32 33 33 33 34 35 36 36 36 36 36 37 37 37 38 39 40 41 42 43 44 45 46 47 49 50 51 53 54 53 54 55 55 55 56 56 58 59 60 61 63 64 65 67 68 70 71 72 73 74 75 76 76 77 77 78 78 78
25 24 22 23 24 25 24 23 22 21 18 18 20 23 27 29 30 31 30 29 28 27 26 26 27 29 30 32 33 33 33 34 36 38 38 39 40 40 41 41 42 43 43 44 45 45 46 47 47 48 50 51 51 52 53 54 55 55 55 56 56 57 58 59 61 62 64 66 67 69 71 72 73 74 75 76 77 78 79 80 80 80 81 81 80
24 24 24 24 25 26 26 26 27 27 26 25 25 25 26 27 27 28 29 29 28 27 27 28 29 29 31 33 34 34 34 35 37 38 38 39 40 41 42 43 44 44 45 45 46 47 48 49 50 51 52 52 53 53 53 54 55 55 57 58 59 61 62 63 65 66 68 70 71 72 74 75 76 76 76 77 78 79 80 80 80 80 80 79 78
24 25 26 27 27 28 28 29 29 30 31 31 31 31 31 31 30 31 31 31 31 31 31 32 32 33 35 37 37 38 38 39 39 39 39 39 39 40 41 42 44 45 45 46 47 48 49 50 50 51 52 52 53 54 55 56 58 59 61 63 64 65 67 68 69 70 71 72 73 73 74 74 75 75 75 75 74 74 75 74 74 73 73 72 71
28 28 29 30 31 31 31 31 31 31 32 32 33 34 35 35 35 35 35 35 36 35 35 35 36 36 38 40 41 41 42 42 42 41 41 41 42 42 43 44 45 46 47 47 48 48 48 49 50 51 52 54 55 57 58 60 62 63 65 67 68 70 71 72 73 73 74 74 74 73 74 74 74 73 73 71 70 69 69 69 68 67 67 66 65
32 31 31 31 32 32 32 32 32 32 33 34 34 35 36 37 37 37 37 37 37 37 37 37 38 38 40 40 41 41 41 41 42 43 44 44 45 45 45 45 45 45 46 46 47 48 49 50 52 53 55 57 58 59 61 63 64 66 68 69 70 72 72 73 74 75 74 74 74 74 74 73 72 72 71 70 68 66 66 65 64 64 63 62 61
35 36 35 33 33 33 34 34 34 34 35 35 36 36 37 38 39 40 40 40 39 39 39 40 41 41 42 43 42 42 42 43 44 45 45 45 45 45 45 45 45 46 47 48 49 50 51 53 55 56 57 59 60 62 63 65 67 68 70 71 72 72 73 73 74 73 73 72 72 72 71 70 69 68 67 66 64 63 61 61 61 61 61 60 59
38 38 38 38 37 36 36 36 36 36 37 37 38 38 39 40 41 42 43 44 44 44 44 44 44 44 44 44 44 44 43 43 44 44 44 44 44 45 45 46 47 48 50 51 52 53 54 55 57 58 59 61 63 64 66 68 69 70 70 71 71 71 71 71 71 70 69 68 67 66 65 64 63 62 62 61 61 60 59 59 59 60 61 61 60
35 36 36 36 36 36 36 37 37 37 38 38 39 40 40 41 42 43 43 44 44 45 45 45 44 43 42 42 42 42 41 42 42 43 44 45 46 47 48 49 50 51 52 53 54 55 56 57 59 60 62 63 65 66 67 68 68 69 69 68 68 68 67 66 66 65 64 63 62 61 60 59 59 58 59 59 60 60 60 61 61 62 63 63 63
32 32 32 32 32 32 33 33 34 35 35 36 37 37 38 38 39 39 40 40 40 40 40 40 40 40 39 40 40 40 41 42 43 45 46 47 48 49 50 50 51 52 53 54 55 56 57 58 60 61 62 63 64 64 64 64 65 65 65 64 64 63 62 62 61 60 60 59 57 56 56 56 56 57 58 60 61 62 63 63 64 64 65 65 64
32 33 33 33 33 32 32 32 33 33 33 34 34 35 35 36 36 36 37 38 38 38 38 38 39 39 40 41 42 42 43 44 45 46 47 48 49 49 50 51 52 53 53 54 55 56 57 57 58 59 59 59 59 59 59 59 59 59 59 59 58 58 57 56 55 55 54 53 52 53 53 54 56 57 59 60 61 62 63 63 63 63 63 63 62
37 37 37 37 37 37 36 36 36 36 36 36 36 36 37 37 38 38 39 39 40 40 41 41 41 41 42 43 43 43 44 45 46 47 47 48 48 49 50 51 51 51 52 52 52 53 53 54 54 54 54 54 54 54 54 55 55 55 55 54 53 52 51 50 49 49 49 50 50 52 53 54 55 55 56 56 57 57 57 56 54 52 52 53 53
41 40 41 41 41 40 40 40 40 40 40 39 39 39 39 39 39 40 40 40 40 40 41 42 42 42 42 43 43 43 44 45 45 46 47 47 47 47 48 48 48 48 48 48 49 49 49 50 50 50 50 50 50 50 51 52 52 51 51 50 48 47 46 46 46 46 47 48 49 50 51 50 49 48 48 49 48 47 45 43 42 42 42 42 42
40 40 41 41 41 41 41 41 41 41 40 40 40 39 39 39 39 39 39 39 39 39 39 39 40 40 41 41 41 42 43 43 43 44 44 44 44 44 44 44 44 44 44 44 45 45 45 45 46 46 47 47 48 48 49 48 48 47 45 44 44 44 44 44 45 46 46 47 47 47 45 42 39 40 41 42 40 38 35 35 36 36 35 32 30
40 39 39 39 39 39 39 39 38 38 38 38 37 37 37 37 37 37 36 37 38 38 37 37 38 38 39 39 39 39 40 40 40 40 40 40 40 40 40 40 40 40 41 41 41 42 42 43 44 45 46 46 46 45 44 44 43 42 42 42 42 43 43 44 45 45 45 45 43 40 37 34 34 36 37 37 35 34 33 32 31 28 23 20 20
41 41 40 40 39 39 38 38 37 37 36 36 35 35 35 35 35 35 34 35 36 36 35 35 36 36 36 36 36 37 37 37 37 37 37 37 37 37 37 38 38 38 38 39 40 41 42 43 43 44 43 42 42 41 40 40 40 40 41 41 42 43 43 43 43 42 42 40 38 35 32 32 33 35 36 33 32 32 31 29 25 21 17 16 16
42 42 42 42 42 41 41 40 39 39 38 37 37 36 36 36 35 34 34 34 35 35 34 35 35 35 34 35 35 35 34 35 35 35 35 35 35 35 36 36 36 37 38 39 40 40 41 41 41 40 39 39 38 38 39 39 40 40 41 41 41 41 41 41 40 40 39 36 34 32 32 32 33 35 35 33 29 28 28 27 23 19 16 13 11
43 43 42 42 43 43 42 42 42 41 40 40 39 38 38 38 37 36 36 36 36 35 35 35 35 34 34 34 34 34 34 34 34 34 34 34 34 35 35 35 36 36 37 38 38 38 38 37 37 37 37 37 38 38 39 39 39 39 39 39 39 39 39 39 38 37 36 34 33 32 33 34 34 35 35 32 28 25 24 24 21 17 14 11 10
42 43 43 43 43 43 43 43 43 42 42 42 41 40 40 40 39 39 38 38 38 37 36 36 36 35 35 34 34 34 33 33 33 33 34 34 34 34 34 35 35 35 35 35 35 35 35 35 36 36 37 37 38 38 37 37 37 37 37 37 37 37 37 37 36 35 33 32 31 32 33 34 34 35 34 31 27 23 21 20 18 14 11 11 12
38 40 41 41 42 42 42 42 42 42 42 42 42 41 41 41 40 40 39 39 38 38 37 36 36 35 34 34 33 33 33 33 33 33 33 33 33 33 33 33 33 32 32 32 33 34 35 35 36 36 36 36 35 35 34 34 34 35 35 35 36 36 36 36 35 32 30 29 29 30 30 31 31 31 31 29 26 22 19 17 16 13 10 9 10
31 33 35 37 38 39 40 40 40 40 41 41 40 40 40 40 39 39 38 38 37 37 36 36 35 34 34 33 33 33 32 32 32 32 31 31 31 30 30 30 30 30 31 32 33 34 35 35 34 34 33 33 32 32 31 31 32 32 33 34 34 35 35 35 34 31 29 28 27 28 28 27 26 26 27 27 26 23 18 16 15 14 12 10 9
26 27 30 32 34 36 37 37 37 38 38 38 38 38 38 38 37 37 37 36 36 35 35 34 34 33 33 32 32 31 31 30 29 29 28 28 27 27 27 28 28 30 31 32 34 34 34 33 33 32 31 30 30 30 29 30 30 31 31 32 33 33 34 34 32 30 29 28 27 27 27 25 23 22 23 25 25 23 20 16 14 13 13 13 13
24 25 27 29 31 33 34 34 35 35 35 35 35 35 35 35 35 35 34 34 33 33 32 32 31 31 31 30 30 29 28 27 26 25 25 25 25 25 26 27 29 30 32 33 34 33 32 32 31 30 30 29 29 28 28 28 29 29 30 31 31 32 31 31 30 29 28 28 27 26 26 25 23 21 21 22 23 23 22 19 16 15 14 14 15
23 24 26 27 28 30 31 32 32 33 32 32 33 33 32 32 32 32 31 31 30 30 29 29 28 28 27 27 26 25 24 23 23 23 23 23 24 24 26 27 29 31 32 33 32 31 30 30 29 29 28 28 27 27 27 27 27 28 29 30 30 29 28 28 28 28 28 28 27 25 24 24 23 21 21 21 21 21 22 21 20 18 16 15 15
23 24 24 25 26 27 28 29 30 30 30 30 30 30 30 29 29 29 28 28 27 26 26 25 25 24 23 23 22 22 22 22 22 22 22 23 23 24 26 28 29 31 32 31 30 29 28 28 28 27 27 27 26 26 26 26 27 27 28 28 28 26 26 26 27 27 27 27 26 25 23 23 22 20 20 21 20 19 19 20 20 19 19 18 17
21 22 22 23 24 25 26 27 27 27 27 28 28 27 27 27 26 26 25 24 23 22 22 22 22 21 21 21 21 21 21 21 21 21 22 22 23 24 26 27 29 30 30 28 27 27 26 26 26 26 26 26 26 25 25 25 26 27 27 27 26 25 25 25 26 27 27 26 25 23 22 21 20 19 19 19 19 18 17 17 17 17 17 18 18
20 20 20 21 22 23 24 25 25 25 25 25 25 24 23 23 23 22 21 21 20 20 20 21 21 21 21 21 21 21 21 21 21 21 21 22 23 24 25 27 28 28 27 26 25 24 24 24 24 24 24 24 24 25 25 25 25 25 26 25 25 25 25 26 26 27 26 24 23 21 20 19 19 18 18 18 18 17 16 15 15 14 13 13 13
Wind_Direction
244 252 262 268 269 268 267 263 254 246 241 243 246 245 246 247 249 250 250 251 254 255 256 256 253 251 247 239 233 230 232 235 237 243 247 246 247 249 252 254 254 253 259 264 264 258 256 255 251 248 251 254 252 251 256 258 258 261 265 270 272 273 277 279 284 290 296 305 314 319 320 320 318 318 318 317 315 312 311 310 311 313 313 313 314
247 251 258 265 268 268 266 264 258 251 243 242 243 241 243 247 249 250 248 248 250 251 252 252 249 246 239 232 228 230 232 233 234 236 239 241 242 244 248 252 253 255 257 260 259 256 252 248 242 241 245 247 245 246 250 252 251 252 256 262 267 274 281 286 292 299 303 311 316 317 317 316 316 314 312 310 307 306 306 307 309 311 311 311 312
253 255 258 264 268 267 265 264 262 256 247 242 240 238 242 248 251 252 250 247 247 249 249 249 247 244 239 234 232 232 229 227 226 227 230 235 239 242 247 250 252 252 252 254 255 253 249 244 238 237 240 241 241 240 242 247 248 246 253 265 277 287 290 291 297 303 305 309 312 312 313 312 309 306 303 301 300 301 302 304 307 308 308 307 306
255 257 259 262 266 266 265 265 262 256 249 242 238 237 240 247 252 253 251 248 247 248 248 248 246 245 242 240 236 232 228 224 222 223 228 234 241 245 246 247 249 249 248 249 249 248 248 247 245 248 248 245 245 247 248 254 257 255 260 270 281 290 291 291 296 298 299 303 305 305 304 304 301 298 296 296 296 297 299 301 304 305 304 303 302
254 253 255 259 260 261 264 265 258 252 249 242 236 236 239 246 253 255 255 252 249 248 247 246 246 245 244 241 235 230 227 227 228 232 238 243 246 248 248 247 246 245 244 242 241 243 247 251 256 261 260 256 259 263 261 258 258 261 265 271 278 285 287 287 288 288 291 294 296 295 294 295 295 293 292 292 293 295 296 298 300 300 300 300 300
257 256 257 260 259 255 258 259 253 250 250 242 236 238 241 247 252 254 256 254 250 248 246 245 244 243 243 239 233 229 229 233 237 242 248 252 253 253 252 251 248 245 244 242 243 246 247 251 257 264 267 267 269 271 268 261 259 263 266 269 275 279 280 280 280 281 284 286 287 288 288 289 290 289 289 290 290 292 294 296 297 298 298 298 298
269 268 264 264 264 259 256 250 243 247 249 241 237 240 242 246 251 254 257 255 251 247 245 245 244 241 239 237 235 234 233 236 241 245 250 254 256 255 254 253 252 250 248 247 249 252 253 254 258 264 268 268 268 270 269 266 266 268 269 270 274 275 275 276 277 278 280 280 281 284 285 285 285 285 286 288 291 293 294 296 296 296 296 295 295
268 266 264 265 266 266 258 241 235 244 248 241 238 241 242 245 250 254 257 255 251 246 243 244 244 243 240 237 236 236 234 237 241 245 250 253 254 254 253 252 251 251 251 250 250 252 254 256 258 260 263 264 264 266 267 267 268 271 272 271 272 273 274 275 276 277 279 279 279 281 284 285 285 284 284 287 291 293 294 296 296 294 292 291 291
267 267 269 269 266 266 261 244 237 242 243 240 241 241 240 243 246 250 253 253 250 245 242 243 244 244 242 237 236 237 236 238 242 244 246 249 251 252 252 251 250 250 250 250 251 252 252 253 254 255 258 261 264 265 267 269 269 270 271 271 271 272 273 274 275 276 278 279 280 282 284 285 286 287 288 289 291 292 294 297 297 294 293 291 290
271 271 271 269 264 262 260 249 240 238 237 239 242 240 238 238 240 243 247 249 249 245 241 241 242 242 240 237 238 239 239 240 241 242 244 246 248 250 251 250 249 248 249 249 251 252 251 251 252 253 257 261 264 265 266 268 270 270 271 272 273 272 272 273 274 275 275 276 278 280 281 282 284 286 287 288 289 290 293 297 298 296 294 293 292
275 274 270 265 259 257 258 250 237 231 233 238 242 240 238 236 235 238 243 245 246 244 241 241 240 238 238 238 239 240 241 242 241 241 243 244 246 248 249 251 250 248 248 248 249 251 252 252 255 257 259 262 264 265 267 269 270 272 272 273 273 273 272 272 272 272 273 274 275 277 278 279 281 282 284 285 286 288 291 295 296 295 293 292 292
276 274 269 264 256 252 252 242 228 226 233 242 244 242 239 236 235 237 240 242 243 242 241 241 240 239 240 241 241 242 243 244 244 243 243 243 244 246 247 249 249 248 248 249 250 253 254 255 257 260 263 264 266 268 269 271 271 271 271 272 272 271 271 271 271 270 271 272 273 275 277 278 280 281 282 283 285 287 289 291 291 291 291 292 291
275 270 266 263 256 250 247 236 229 233 240 243 245 243 240 238 237 237 238 240 241 241 240 240 240 240 242 243 243 243 244 246 247 246 245 243 244 246 247 247 247 248 249 251 252 254 255 257 259 262 265 266 268 269 270 270 270 269 269 269 269 269 269 269 269 269 270 271 272 274 276 277 279 280 281 282 284 286 287 287 287 287 288 289 290
274 266 261 260 255 251 249 244 241 244 243 241 244 243 238 237 237 236 238 239 238 239 239 239 239 241 244 246 246 245 245 246 247 247 247 246 246 248 247 246 246 246 248 251 252 254 256 258 261 263 265 265 267 268 268 268 268 267 268 268 268 268 268 268 268 268 269 270 271 272 274 275 277 279 280 281 282 284 285 285 285 285 286 286 287
271 265 260 259 255 253 251 247 246 245 239 237 243 242 237 237 238 236 237 238 238 239 240 241 242 245 248 249 247 245 244 244 245 245 246 246 247 247 245 244 244 244 246 248 249 252 254 256 258 261 263 264 265 265 265 265 266 266 267 267 268 268 268 268 267 268 268 270 271 273 275 277 279 280 282 282 283 283 283 283 283 284 284 285 286
270 264 258 255 251 249 248 245 244 242 236 237 243 243 238 237 238 237 236 236 238 241 243 245 246 247 249 250 247 243 241 241 240 241 243 243 244 244 243 243 244 244 244 245 246 249 251 252 254 257 259 261 262 263 264 264 265 266 267 267 268 268 268 268 268 269 270 272 274 276 279 280 281 281 282 283 284 284 284 284 284 284 283 283 284
261 256 255 251 243 238 239 239 238 237 235 238 245 247 243 238 236 237 236 235 237 242 246 249 248 246 247 247 242 237 236 237 236 237 240 241 241 242 243 244 245 246 246 247 248 249 250 251 252 254 256 257 259 261 263 264 265 266 267 267 268 269 269 270 270 271 272 274 276 278 281 282 282 283 284 285 286 286 285 285 285 284 283 282 281
247 250 254 249 237 230 230 233 233 233 235 240 245 248 246 242 241 240 235 232 235 241 248 250 247 242 242 239 234 232 234 235 234 235 237 238 240 242 244 246 248 249 250 251 251 252 253 254 255 256 257 259 260 261 262 263 265 266 266 267 267 268 269 270 271 272 273 275 277 279 280 282 282 284 284 284 284 283 283 283 284 284 283 282 281
245 247 245 236 228 224 222 225 227 230 234 240 245 247 247 247 250 246 235 231 238 245 246 245 240 237 237 236 234 235 236 234 233 234 236 238 241 244 246 249 250 251 253 254 254 256 258 259 261 263 265 265 264 265 264 265 266 267 268 269 269 270 270 271 271 272 273 275 277 279 281 282 282 282 282 282 282 281 281 282 283 283 283 282 281
254 243 232 224 223 221 219 222 226 230 235 239 243 247 248 249 252 249 242 244 249 246 241 237 237 237 237 237 237 239 238 235 234 234 237 242 246 248 251 251 252 253 256 257 258 259 261 264 266 268 269 270 270 271 271 271 272 273 273 274 275 275 275 274 274 275 276 278 279 281 282 281 281 281 280 279 279 279 280 282 282 283 282 282 282
278 248 227 218 218 219 219 222 227 232 234 236 238 242 246 249 252 253 252 251 247 237 231 232 236 237 238 238 237 237 237 235 235 237 241 245 248 250 252 253 255 257 259 261 261 260 262 267 270 270 271 273 273 274 275 276 277 278 279 279 279 279 278 278 278 279 280 281 282 282 282 280 279 279 278 278 277 278 279 280 281 282 282 282 282
287 267 237 222 219 220 223 225 228 230 232 234 236 239 242 246 250 252 248 240 231 225 226 231 235 237 238 238 237 236 237 237 239 241 244 247 250 252 253 255 257 259 260 261 262 261 261 264 269 271 271 273 274 274 276 278 279 280 281 282 282 281 280 279 280 281 282 283 283 283 283 282 281 280 279 279 280 280 280 280 279 279 280 280 280
274 271 254 235 227 226 227 230 232 234 235 238 240 241 241 240 241 241 236 227 222 223 229 234 236 237 238 237 237 238 240 242 244 246 248 250 252 255 257 259 260 261 262 263 265 266 266 266 268 270 271 272 274 275 276 278 280 281 282 282 282 281 280 280 281 282 282 282 282 282 282 282 282 281 281 281 282 282 282 281 280 280 279 279 278
262 261 256 247 237 230 227 227 230 235 238 240 240 238 235 233 233 233 230 224 224 229 234 236 237 237 237 238 240 242 243 246 249 250 251 253 256 258 260 260 259 260 262 263 266 268 270 270 270 272 273 275 276 277 277 278 280 281 281 281 282 281 281 281 282 282 282 282 282 281 281 281 281 281 281 282 282 282 282 281 281 280 279 278 277
255 255 253 249 245 241 237 234 235 239 240 239 233 225 221 222 226 228 228 229 232 236 237 237 238 239 240 242 244 245 248 250 252 252 252 253 255 257 258 257 256 258 261 264 267 269 271 273 274 274 275 276 277 278 279 280 281 282 283 283 283 283 283 283 283 283 283 282 282 282 281 281 281 281 281 281 281 281 281 280 280 279 279 278 278
252 252 251 249 247 246 245 244 244 243 238 233 228 222 218 219 222 224 228 232 235 237 239 242 245 247 248 249 250 252 254 255 255 254 253 253 254 256 258 260 262 263 266 268 271 272 274 275 276 277 277 278 280 281 282 283 284 284 285 285 285 285 285 285 284 284 283 283 283 282 282 282 282 282 281 281 281 281 280 280 280 280 280 280 280
253 253 250 247 246 246 247 246 246 246 244 240 237 232 228 227 227 230 234 236 237 238 240 243 246 248 249 251 252 253 254 255 257 258 258 258 258 259 261 263 265 266 268 269 271 273 274 275 277 278 279 281 282 283 284 285 285 286 286 287 287 287 287 286 286 286 285 284 284 284 283 283 282 282 282 281 281 281 281 281 281 281 281 281 281
248 249 248 246 245 246 248 248 248 248 248 248 247 244 242 240 239 241 244 246 247 247 245 244 244 246 247 248 249 250 251 253 257 260 262 261 261 262 263 264 266 268 269 270 272 274 275 277 278 280 281 282 283 284 285 286 287 288 288 289 289 289 288 288 287 286 285 285 284 284 283 283 282 282 282 281 281 282 282 282 282 282 282 281 281
250 246 245 247 249 250 251 252 252 253 253 254 254 254 254 253 253 253 254 255 257 257 255 253 252 250 250 250 251 251 252 253 256 259 261 262 263 265 266 267 268 270 271 273 274 276 277 279 281 282 284 284 285 286 287 287 288 288 288 288 288 287 287 286 285 285 285 284 284 284 284 284 284 284 284 284 284 284 283 283 283 282 282 282 282
255 253 250 249 250 252 252 252 252 253 254 254 255 256 258 259 259 259 259 258 257 256 254 253 250 248 248 250 250 250 250 252 255 258 261 264 265 267 268 269 270 271 273 275 276 278 280 281 282 284 285 285 286 286 286 286 287 287 286 286 286 285 285 285 285 286 286 286 286 286 287 287 287 287 287 287 286 286 285 285 284 283 283 282 282
254 255 256 256 254 254 254 253 254 253 254 254 254 255 255 256 257 257 257 256 254 252 251 250 249 249 249 250 251 251 252 255 258 261 263 266 267 268 270 271 273 274 276 277 279 281 282 283 283 284 284 285 285 286 286 286 286 286 286 286 286 286 286 287 287 287 288 288 288 289 289 289 289 289 289 288 288 287 286 285 285 284 283 282 282
249 250 252 253 254 253 253 253 253 253 254 254 255 255 255 255 254 255 255 256 256 255 254 255 256 256 256 255 256 258 259 261 263 265 267 269 270 272 274 275 277 278 280 281 282 282 283 283 284 284 285 285 285 285 286 286 286 286 286 286 287 287 287 288 289 289 290 290 291 291 292 292 291 291 291 290 289 288 287 286 285 285 284 283 283
247 248 249 250 250 250 251 250 251 251 251 252 252 253 254 254 255 255 255 255 256 257 258 259 260 261 262 263 263 264 266 267 268 270 271 273 274 276 277 278 279 280 281 282 282 283 283 284 284 284 285 285 285 285 285 285 285 285 286 286 287 288 289 290 291 291 292 293 293 293 293 293 293 292 292 292 291 290 289 288 287 286 285 284 283
248 249 249 251 251 251 251 250 251 251 251 251 251 252 252 254 255 256 256 256 257 258 260 261 263 264 265 266 268 269 270 271 272 273 274 275 276 277 278 279 279 280 281 282 282 283 283 283 284 284 284 284 284 284 285 285 285 286 287 287 289 290 291 291 292 292 293 293 293 293 293 293 293 293 293 293 292 291 290 288 287 285 284 282 281
254 254 254 255 256 256 256 256 256 256 256 256 257 257 258 258 259 260 261 261 262 263 264 265 266 267 268 269 270 271 272 273 273 274 275 276 277 277 278 279 279 280 281 281 282 282 283 283 283 284 284 284 284 285 286 286 287 288 289 290 290 291 292 292 293 293 294 294 294 294 295 295 295 295 294 293 292 291 289 288 286 284 282 280 278
260 261 261 261 261 262 262 263 263 263 263 263 263 263 263 264 264 264 265 265 266 267 268 268 269 269 270 270 271 272 272 273 273 274 275 275 276 277 277 278 278 279 280 281 282 282 283 283 283 284 284 285 286 286 287 288 288 289 290 290 291 292 292 293 294 295 295 296 296 297 297 297 297 296 296 295 295 294 292 291 290 287 285 282 278
263 264 265 265 266 266 266 267 267 267 267 267 267 266 266 266 266 266 267 267 268 268 269 270 271 271 271 271 271 272 272 272 273 273 274 274 275 275 276 277 278 279 280 281 281 281 282 282 283 284 285 286 287 287 288 289 289 290 291 292 293 294 295 295 296 297 297 298 299 299 300 300 300 301 302 302 301 299 298 297 297 295 291 286 281
266 266 267 267 268 268 268 269 269 269 269 269 269 269 268 268 268 268 268 269 268 268 268 269 270 270 270 270 271 271 271 272 272 273 273 274 275 275 276 278 279 280 280 281 281 282 283 284 285 286 287 288 288 289 289 289 290 292 293 295 296 297 298 298 299 299 300 301 301 301 302 304 306 309 311 310 307 305 305 305 304 300 295 289 284
267 268 268 269 269 269 269 270 270 270 270 269 269 269 268 267 267 267 267 267 267 267 268 268 268 267 268 269 269 269 270 271 271 272 273 274 275 276 277 278 279 280 281 282 283 284 285 287 287 288 289 289 289 290 291 292 293 295 296 297 298 299 300 301 301 302 303 303 303 303 305 308 310 312 314 314 312 312 312 312 311 307 301 296 291
265 267 268 268 268 268 268 268 269 269 269 268 268 268 267 266 265 266 265 264 265 266 266 266 266 266 266 266 267 268 269 270 271 272 273 275 276 277 279 280 281 282 283 284 284 285 286 287 288 288 289 289 290 292 293 294 295 296 298 299 300 301 302 303 304 305 305 304 303 303 305 307 309 311 313 313 314 317 318 317 313 307 305 306 302
264 264 264 265 266 266 267 267 267 267 267 268 268 267 266 265 266 265 265 264 264 264 265 265 265 265 265 266 267 268 269 270 271 272 273 274 276 277 278 279 279 280 281 282 283 285 286 287 288 289 290 291 292 293 294 295 296 297 299 300 302 303 304 306 307 308 306 303 301 301 302 304 309 313 313 312 313 317 320 321 315 305 303 311 313
262 262 261 261 261 262 263 264 264 264 265 265 264 264 264 264 264 264 264 264 264 264 264 265 265 266 266 267 268 269 270 270 271 272 273 273 274 274 275 276 277 279 280 282 284 286 287 288 289 290 291 292 293 293 294 295 297 298 300 302 303 305 306 308 309 308 305 301 298 299 300 302 308 314 314 311 311 313 317 321 319 308 299 301 299
259 259 259 258 258 258 257 258 259 259 260 260 260 261 261 261 261 262 262 262 262 263 263 264 265 266 267 267 268 269 269 270 270 271 271 271 272 273 274 276 278 281 283 285 286 288 289 291 292 292 293 293 293 293 295 296 297 299 301 302 304 305 307 309 310 308 304 300 299 300 301 302 307 314 315 311 310 310 312 315 316 309 293 286 283
256 256 256 256 255 255 254 254 255 255 255 256 257 257 257 258 259 260 260 261 261 262 263 263 264 265 266 267 267 267 268 268 269 269 270 271 272 274 277 279 282 284 286 287 290 291 293 294 294 294 294 293 293 294 295 296 298 300 301 303 305 306 308 310 311 309 305 301 301 303 305 306 310 316 317 313 310 311 310 308 306 302 289 279 275
257 256 255 254 254 253 253 252 252 252 253 253 253 254 255 256 256 257 258 259 260 261 261 262 262 263 264 264 265 265 266 266 267 268 270 272 274 277 279 281 284 286 288 291 293 295 295 296 295 294 293 293 293 294 295 297 298 300 302 303 305 307 309 310 311 310 307 305 303 304 307 310 313 318 320 318 313 311 310 307 303 301 295 284 269
260 257 256 254 254 253 252 251 251 251 251 251 251 252 252 253 254 254 255 256 257 258 259 259 260 260 261 261 262 263 264 265 266 269 271 274 276 278 280 283 286 289 293 295 297 298 297 296 295 294 293 293 293 294 296 298 299 301 302 304 306 307 309 310 310 310 309 309 306 303 305 308 311 315 320 320 316 311 307 304 301 297 293 285 276
261 259 257 256 255 254 253 252 250 250 251 251 251 251 251 251 252 253 253 254 255 255 256 256 257 257 258 259 260 261 263 265 268 270 272 274 275 278 282 286 290 295 298 299 300 299 298 297 296 295 294 294 295 295 297 298 299 301 302 303 305 307 308 309 309 308 308 310 310 307 304 306 307 308 312 316 317 313 308 304 298 293 288 282 277
262 259 258 256 255 254 253 252 250 250 250 250 250 250 250 250 251 251 252 252 252 253 253 253 254 255 256 257 259 261 264 267 269 270 270 272 276 281 286 291 296 299 302 302 301 300 299 298 297 297 297 296 296 296 297 298 299 300 301 302 303 305 308 310 311 309 308 309 311 310 306 305 305 305 304 308 313 315 313 307 300 293 289 286 282
265 262 259 257 255 254 253 251 250 250 249 249 249 249 249 249 249 249 249 250 250 250 251 251 252 253 255 257 260 263 265 266 266 266 268 273 279 284 290 295 300 303 305 304 303 302 301 300 300 299 299 298 298 297 297 297 297 298 299 300 300 302 306 311 313 312 311 310 310 310 308 305 305 304 302 303 308 314 317 314 305 295 288 285 283
269 266 262 259 258 256 254 252 251 249 248 247 247 247 247 247 247 247 247 247 247 247 248 249 250 252 255 257 259 262 262 262 262 265 270 276 282 288 293 299 304 307 307 306 304 303 302 302 301 300 299 298 297 297 296 296 296 296 297 297 297 297 301 307 311 313 313 311 310 310 308 305 305 305 303 302 304 309 315 319 316 306 294 287 284
272 270 266 263 260 258 256 254 252 249 247 246 246 245 245 245 245 244 243 243 243 244 245 246 248 250 253 255 257 258 259 260 263 268 274 280 285 290 297 303 308 309 308 307 305 303 303 302 301 301 299 298 296 295 294 294 294 295 295 295 294 294 297 303 308 312 314 312 311 310 308 305 306 308 306 302 302 305 309 314 319 319 312 301 291
Height
5752 5754 5756 5757 5757 5758 5759 5761 5762 5762 5762 5763 5765 5766 5766 5766 5767 5768 5769 5769 5770 5771 5771 5772 5773 5773 5774 5775 5775 5776 5776 5777 5778 5778 5779 5780 5780 5781 5781 5781 5781 5782 5782 5782 5783 5785 5786 5787 5787 5788 5788 5789 5789 5790 5790 5791 5792 5793 5793 5793 5793 5794 5794 5795 5795 5794 5795 5795 5795 5795 5795 5795 5795 5795 5794 5794 5794 5794 5794 5794 5794 5794 5794 5793 5793
5748 5750 5752 5753 5754 5755 5757 5759 5760 5760 5760 5760 5762 5763 5764 5765 5766 5766 5767 5768 5769 5769 5770 5771 5771 5772 5773 5773 5774 5774 5775 5775 5775 5776 5777 5778 5779 5780 5780 5780 5781 5781 5781 5782 5782 5783 5784 5785 5786 5786 5787 5787 5788 5788 5789 5790 5791 5791 5791 5791 5791 5792 5793 5793 5792 5792 5793 5793 5793 5793 5793 5793 5793 5793 5793 5793 5793 5793 5793 5793 5792 5792 5792 5791 5791
5745 5746 5748 5750 5751 5752 5754 5756 5757 5757 5757 5757 5759 5760 5761 5763 5764 5765 5766 5766 5767 5768 5769 5769 5770 5771 5771 5772 5772 5773 5773 5773 5774 5775 5775 5776 5777 5778 5779 5779 5779 5780 5780 5780 5781 5781 5782 5783 5784 5785 5785 5786 5787 5787 5787 5788 5789 5789 5789 5789 5789 5790 5791 5791 5790 5791 5791 5791 5791 5791 5791 5791 5791 5791 5791 5791 5791 5791 5791 5791 5790 5790 5789 5789 5789
5741 5744 5746 5747 5748 5749 5751 5753 5754 5754 5755 5755 5756 5758 5759 5761 5762 5763 5764 5764 5765 5766 5767 5768 5769 5769 5770 5770 5771 5771 5772 5772 5773 5773 5774 5775 5776 5777 5778 5778 5778 5778 5779 5779 5779 5779 5780 5781 5782 5783 5783 5784 5784 5785 5785 5786 5786 5786 5787 5787 5787 5788 5789 5789 5789 5789 5789 5789 5789 5789 5789 5789 5789 5789 5789 5789 5789 5789 5789 5788 5788 5788 5787 5787 5786
5737 5740 5742 5744 5746 5747 5749 5751 5752 5753 5753 5754 5754 5755 5757 5758 5759 5760 5761 5762 5764 5764 5765 5767 5767 5768 5768 5769 5769 5770 5771 5771 5772 5772 5773 5773 5774 5775 5776 5777 5777 5777 5777 5778 5778 5778 5779 5779 5779 5780 5781 5781 5782 5782 5783 5783 5784 5784 5785 5785 5785 5786 5786 5787 5787 5787 5787 5787 5787 5787 5787 5787 5787 5787 5786 5786 5786 5786 5786 5786 5786 5785 5785 5785 5784
5735 5737 5739 5740 5742 5744 5746 5748 5750 5751 5751 5752 5753 5753 5754 5755 5756 5758 5759 5760 5761 5762 5763 5764 5765 5766 5766 5767 5768 5769 5770 5771 5771 5771 5772 5772 5772 5773 5774 5774 5775 5776 5776 5776 5776 5776 5777 5778 5778 5778 5779 5779 5780 5780 5780 5781 5782 5783 5783 5783 5783 5783 5784 5784 5784 5784 5784 5784 5784 5784 5784 5784 5783 5783 5783 5784 5784 5783 5783 5783 5783 5783 5782 5782 5782
5733 5735 5736 5737 5738 5740 5741 5744 5746 5748 5749 5750 5750 5751 5751 5752 5754 5755 5757 5758 5759 5760 5761 5762 5763 5764 5764 5766 5767 5768 5768 5768 5768 5769 5769 5770 5770 5771 5772 5772 5773 5773 5774 5774 5774 5775 5775 5776 5777 5777 5777 5778 5778 5778 5778 5779 5780 5781 5781 5781 5781 5781 5781 5781 5781 5781 5782 5782 5781 5781 5781 5781 5780 5780 5779 5779 5780 5780 5780 5779 5779 5779 5779 5779 5779
5730 5731 5733 5734 5736 5737 5738 5739 5742 5744 5746 5747 5747 5748 5749 5750 5751 5753 5754 5755 5756 5756 5757 5759 5760 5761 5763 5765 5765 5765 5765 5766 5766 5767 5768 5768 5769 5769 5770 5770 5771 5771 5772 5773 5773 5773 5774 5775 5776 5776 5775 5776 5776 5776 5776 5777 5778 5778 5779 5779 5779 5779 5778 5779 5779 5779 5779 5779 5778 5778 5777 5777 5777 5777 5776 5776 5775 5775 5776 5776 5776 5775 5775 5776 5776
5727 5729 5731 5732 5733 5733 5735 5736 5737 5740 5742 5743 5744 5745 5746 5747 5749 5750 5750 5751 5752 5753 5754 5756 5757 5759 5761 5762 5762 5762 5763 5764 5764 5765 5766 5766 5766 5767 5767 5768 5769 5769 5770 5770 5771 5771 5772 5773 5774 5774 5773 5774 5774 5774 5774 5775 5776 5776 5776 5776 5776 5777 5776 5776 5777 5776 5776 5775 5775 5775 5774 5774 5773 5773 5772 5772 5771 5771 5770 5771 5771 5772 5772 5772 5772
5724 5726 5727 5728 5728 5728 5730 5732 5733 5736 5737 5739 5741 5742 5743 5744 5746 5746 5747 5748 5749 5750 5752 5753 5755 5757 5758 5758 5758 5759 5761 5761 5762 5762 5763 5763 5764 5764 5765 5766 5766 5767 5768 5768 5768 5769 5770 5770 5771 5771 5772 5772 5772 5773 5773 5773 5773 5774 5774 5773 5774 5774 5774 5774 5774 5773 5773 5772 5771 5771 5771 5770 5770 5769 5769 5768 5767 5766 5766 5766 5766 5767 5768 5767 5767
5721 5722 5723 5723 5723 5724 5726 5728 5730 5732 5734 5735 5737 5739 5739 5741 5742 5742 5743 5745 5746 5747 5749 5750 5752 5753 5753 5754 5756 5757 5757 5758 5759 5760 5760 5761 5761 5762 5762 5763 5764 5765 5765 5765 5765 5766 5767 5768 5768 5768 5769 5770 5770 5771 5771 5771 5771 5771 5771 5771 5770 5771 5771 5770 5770 5770 5769 5769 5768 5767 5767 5767 5766 5766 5766 5765 5764 5763 5762 5761 5762 5762 5762 5762 5762
5718 5719 5719 5719 5720 5721 5723 5724 5726 5728 5730 5731 5733 5735 5735 5737 5738 5739 5741 5742 5743 5744 5746 5747 5749 5750 5750 5751 5753 5754 5754 5755 5756 5757 5757 5758 5759 5759 5760 5761 5761 5762 5762 5763 5763 5763 5764 5765 5765 5765 5766 5767 5767 5768 5768 5769 5768 5768 5768 5768 5767 5767 5767 5767 5767 5766 5766 5765 5764 5764 5763 5763 5762 5762 5762 5761 5760 5760 5759 5758 5757 5757 5756 5757 5757
5714 5715 5715 5715 5716 5717 5719 5720 5722 5725 5726 5728 5729 5730 5731 5733 5735 5736 5738 5739 5740 5741 5742 5744 5745 5747 5748 5749 5750 5751 5752 5752 5753 5754 5754 5755 5756 5756 5758 5758 5758 5759 5759 5760 5761 5761 5761 5762 5762 5762 5763 5764 5764 5765 5765 5765 5765 5765 5764 5764 5763 5763 5763 5763 5763 5762 5762 5762 5761 5760 5760 5759 5759 5758 5757 5757 5756 5755 5754 5753 5753 5752 5752 5752 5751
5710 5711 5711 5711 5712 5713 5714 5716 5719 5720 5721 5723 5725 5726 5727 5729 5731 5733 5735 5737 5737 5738 5739 5740 5742 5743 5744 5745 5746 5747 5748 5749 5750 5751 5751 5752 5753 5753 5755 5755 5755 5756 5756 5757 5757 5758 5758 5759 5759 5760 5760 5760 5760 5761 5761 5761 5761 5760 5760 5760 5760 5759 5759 5759 5759 5758 5758 5758 5757 5757 5756 5755 5755 5754 5753 5753 5751 5750 5748 5748 5748 5747 5747 5747 5746
5706 5707 5707 5707 5708 5709 5710 5712 5714 5715 5716 5719 5721 5722 5723 5725 5727 5730 5732 5733 5734 5734 5735 5737 5739 5740 5741 5742 5742 5743 5744 5745 5746 5747 5748 5749 5749 5750 5751 5751 5752 5753 5753 5753 5754 5754 5755 5756 5756 5756 5757 5757 5757 5757 5757 5757 5756 5756 5756 5756 5756 5756 5755 5755 5754 5754 5754 5753 5753 5752 5751 5751 5750 5750 5749 5748 5747 5745 5744 5743 5742 5742 5742 5741 5740
5703 5703 5703 5703 5704 5705 5706 5708 5709 5710 5712 5714 5716 5717 5719 5722 5724 5727 5728 5729 5730 5730 5731 5733 5734 5736 5736 5737 5738 5738 5740 5741 5743 5744 5744 5745 5746 5746 5747 5748 5748 5749 5749 5749 5750 5751 5751 5752 5753 5753 5753 5754 5753 5753 5752 5752 5752 5752 5752 5752 5751 5751 5751 5750 5749 5749 5749 5749 5748 5748 5747 5746 5745 5744 5744 5743 5741 5740 5739 5738 5738 5737 5736 5735 5735
5698 5698 5698 5699 5700 5701 5702 5704 5705 5706 5708 5710 5712 5714 5716 5718 5721 5723 5724 5725 5726 5727 5728 5728 5730 5731 5731 5732 5733 5734 5736 5737 5738 5740 5740 5741 5742 5743 5743 5744 5745 5746 5745 5746 5747 5747 5747 5748 5748 5748 5748 5749 5749 5749 5748 5748 5748 5747 5747 5747 5746 5746 5745 5745 5745 5745 5745 5744 5743 5742 5741 5740 5739 5739 5738 5737 5736 5734 5733 5732 5732 5731 5730 5729 5728
5693 5694 5693 5693 5695 5697 5699 5700 5702 5703 5704 5706 5708 5710 5712 5715 5717 5719 5720 5721 5722 5723 5724 5724 5725 5726 5727 5728 5729 5730 5732 5733 5734 5736 5736 5737 5738 5739 5740 5741 5742 5742 5742 5742 5743 5743 5743 5744 5744 5744 5744 5745 5744 5744 5743 5742 5742 5742 5741 5741 5741 5740 5740 5740 5739 5740 5739 5739 5738 5737 5736 5735 5734 5732 5731 5730 5729 5727 5726 5726 5725 5723 5721 5721 5721
5689 5689 5689 5690 5690 5693 5695 5696 5698 5700 5702 5703 5704 5706 5708 5711 5713 5715 5716 5718 5719 5719 5720 5721 5722 5723 5724 5725 5726 5727 5728 5729 5730 5732 5733 5734 5735 5735 5736 5737 5737 5737 5737 5737 5738 5739 5739 5740 5740 5740 5740 5740 5739 5738 5738 5737 5737 5736 5736 5736 5735 5735 5735 5734 5734 5734 5733 5733 5732 5731 5730 5729 5727 5726 5725 5723 5722 5720 5719 5718 5717 5715 5713 5712 5712
5685 5684 5685 5686 5686 5688 5691 5692 5694 5696 5698 5699 5701 5702 5704 5707 5709 5711 5712 5713 5714 5715 5716 5717 5718 5719 5720 5721 5722 5723 5725 5726 5727 5728 5729 5730 5731 5731 5732 5733 5733 5732 5732 5733 5734 5735 5735 5735 5736 5735 5735 5734 5734 5733 5733 5733 5732 5731 5731 5731 5730 5730 5729 5729 5728 5728 5727 5727 5726 5725 5723 5722 5720 5719 5718 5717 5715 5713 5711 5710 5708 5706 5704 5703 5702
5682 5681 5681 5683 5684 5685 5687 5689 5691 5693 5694 5696 5698 5699 5701 5702 5704 5706 5707 5708 5709 5710 5711 5713 5714 5715 5716 5717 5718 5719 5721 5722 5723 5724 5725 5726 5726 5727 5727 5728 5728 5728 5728 5728 5728 5730 5731 5731 5730 5730 5729 5728 5728 5728 5728 5728 5727 5726 5726 5725 5724 5724 5724 5723 5722 5721 5721 5720 5719 5718 5716 5715 5713 5712 5711 5709 5708 5706 5704 5702 5700 5697 5695 5693 5692
5681 5680 5680 5680 5681 5683 5684 5686 5688 5689 5691 5692 5694 5695 5697 5698 5699 5701 5702 5703 5703 5705 5707 5709 5710 5711 5712 5713 5714 5716 5717 5718 5719 5720 5721 5721 5722 5722 5723 5723 5724 5724 5724 5723 5723 5724 5726 5726 5725 5724 5724 5723 5723 5722 5722 5722 5721 5720 5720 5719 5718 5718 5718 5717 5716 5714 5713 5712 5711 5710 5708 5706 5705 5704 5703 5701 5699 5697 5695 5693 5692 5689 5687 5684 5683
5679 5679 5679 5679 5680 5681 5682 5683 5684 5686 5687 5688 5690 5691 5692 5693 5694 5695 5697 5698 5699 5701 5703 5704 5706 5707 5708 5709 5711 5712 5713 5714 5715 5716 5717 5717 5718 5718 5718 5718 5719 5719 5719 5719 5719 5719 5720 5720 5720 5719 5719 5718 5718 5717 5717 5717 5716 5715 5714 5712 5712 5711 5711 5710 5708 5707 5706 5704 5703 5702 5700 5698 5696 5695 5693 5691 5689 5687 5685 5682 5681 5680 5678 5676 5673
5677 5678 5678 5678 5679 5679 5679 5680 5682 5683 5684 5685 5686 5687 5688 5688 5689 5691 5693 5694 5696 5697 5699 5700 5702 5703 5705 5706 5707 5708 5710 5711 5711 5712 5713 5713 5713 5714 5714 5714 5714 5715 5715 5715 5715 5714 5714 5714 5714 5714 5714 5713 5712 5711 5711 5711 5710 5709 5707 5706 5705 5704 5703 5701 5700 5699 5697 5696 5694 5693 5691 5689 5687 5685 5683 5682 5680 5677 5674 5671 5669 5667 5666 5665 5663
5675 5675 5676 5676 5677 5677 5678 5678 5679 5680 5681 5682 5683 5684 5685 5685 5686 5688 5689 5691 5693 5694 5695 5696 5698 5699 5701 5702 5703 5705 5707 5708 5707 5707 5708 5708 5708 5709 5709 5709 5709 5710 5710 5710 5709 5709 5709 5709 5709 5709 5708 5707 5707 5706 5704 5704 5703 5702 5700 5699 5698 5696 5695 5693 5691 5690 5688 5686 5684 5683 5681 5679 5677 5675 5674 5672 5670 5667 5663 5659 5657 5654 5652 5652 5652
5671 5672 5673 5674 5674 5674 5675 5676 5677 5678 5679 5680 5681 5682 5683 5683 5684 5685 5686 5688 5689 5690 5692 5693 5694 5696 5697 5698 5699 5701 5704 5704 5701 5701 5702 5703 5703 5703 5704 5704 5704 5704 5704 5704 5703 5703 5703 5702 5702 5702 5701 5701 5700 5699 5698 5697 5696 5694 5692 5691 5689 5688 5686 5684 5682 5681 5679 5676 5675 5672 5670 5668 5666 5665 5663 5660 5657 5654 5650 5646 5645 5642 5639 5638 5639
5668 5669 5670 5671 5671 5672 5672 5673 5674 5675 5676 5677 5678 5679 5680 5680 5681 5682 5683 5684 5685 5686 5688 5689 5690 5692 5693 5693 5695 5698 5699 5698 5695 5695 5697 5698 5698 5698 5698 5698 5698 5698 5698 5698 5697 5697 5696 5695 5695 5694 5694 5693 5692 5692 5691 5689 5688 5686 5684 5682 5681 5679 5677 5674 5672 5670 5668 5665 5663 5661 5658 5656 5654 5652 5651 5648 5645 5641 5636 5633 5632 5630 5628 5626 5626
5665 5666 5667 5667 5668 5669 5669 5670 5671 5671 5672 5673 5674 5675 5675 5676 5678 5678 5679 5680 5681 5681 5682 5684 5685 5687 5687 5688 5690 5692 5692 5691 5690 5690 5691 5691 5692 5692 5692 5692 5692 5692 5691 5691 5691 5690 5689 5688 5688 5687 5686 5685 5685 5684 5683 5681 5679 5677 5675 5674 5671 5669 5667 5664 5662 5659 5657 5654 5652 5649 5646 5644 5641 5640 5639 5637 5634 5630 5625 5622 5620 5618 5616 5615 5615
5661 5662 5663 5664 5664 5665 5666 5666 5667 5668 5668 5669 5670 5670 5671 5672 5673 5673 5674 5675 5676 5676 5677 5678 5680 5681 5681 5682 5684 5686 5685 5685 5685 5685 5684 5685 5685 5685 5686 5686 5685 5685 5685 5684 5684 5683 5682 5681 5680 5679 5678 5677 5677 5676 5674 5673 5671 5669 5667 5665 5663 5660 5658 5655 5652 5649 5646 5644 5641 5638 5635 5632 5629 5627 5626 5625 5623 5619 5615 5611 5609 5607 5605 5604 5603
5656 5657 5658 5659 5659 5660 5661 5662 5662 5663 5664 5665 5665 5666 5667 5667 5668 5669 5669 5670 5671 5671 5672 5673 5675 5675 5675 5676 5678 5679 5679 5679 5679 5679 5679 5679 5679 5679 5679 5679 5679 5679 5679 5678 5677 5676 5675 5674 5673 5672 5671 5670 5669 5668 5666 5664 5662 5660 5658 5656 5653 5650 5647 5644 5641 5638 5635 5632 5629 5627 5624 5621 5618 5615 5613 5612 5611 5609 5605 5601 5599 5597 5595 5593 5592
5652 5652 5652 5653 5654 5655 5656 5657 5657 5658 5659 5659 5660 5661 5662 5662 5663 5664 5664 5665 5666 5666 5667 5668 5669 5670 5670 5671 5671 5672 5673 5673 5673 5673 5673 5673 5673 5673 5673 5673 5673 5672 5671 5671 5670 5669 5668 5667 5666 5665 5664 5663 5661 5660 5658 5656 5653 5651 5648 5645 5642 5639 5636 5633 5630 5627 5624 5621 5618 5616 5613 5610 5607 5604 5602 5600 5599 5598 5595 5592 5589 5586 5585 5584 5583
5647 5647 5647 5648 5649 5650 5651 5652 5652 5653 5654 5654 5655 5656 5657 5657 5657 5658 5659 5660 5660 5661 5661 5662 5663 5664 5664 5665 5666 5666 5667 5667 5667 5667 5667 5667 5667 5667 5667 5666 5666 5665 5664 5663 5662 5662 5661 5659 5658 5657 5656 5654 5653 5651 5649 5646 5644 5641 5638 5635 5632 5629 5626 5623 5620 5617 5614 5611 5609 5606 5602 5599 5596 5594 5591 5589 5588 5587 5585 5583 5580 5577 5575 5574 5573
5641 5642 5642 5643 5644 5645 5646 5647 5647 5648 5649 5649 5650 5651 5651 5651 5652 5653 5654 5654 5654 5655 5656 5657 5657 5658 5659 5659 5660 5660 5661 5661 5661 5661 5661 5661 5661 5660 5660 5659 5659 5657 5657 5656 5655 5654 5653 5652 5650 5648 5647 5645 5643 5641 5639 5637 5634 5631 5629 5626 5623 5620 5617 5614 5611 5608 5605 5602 5599 5596 5593 5590 5587 5585 5582 5580 5578 5576 5574 5573 5570 5567 5565 5563 5563
5636 5636 5637 5638 5639 5640 5641 5642 5643 5643 5644 5644 5645 5646 5646 5646 5647 5648 5649 5649 5650 5651 5651 5652 5652 5653 5654 5654 5654 5655 5655 5655 5655 5655 5654 5654 5654 5654 5653 5653 5651 5650 5650 5649 5648 5646 5645 5644 5641 5640 5638 5636 5634 5632 5630 5627 5625 5622 5620 5617 5615 5612 5609 5606 5603 5600 5597 5594 5591 5589 5586 5583 5580 5577 5575 5572 5569 5566 5564 5562 5559 5556 5554 5553 5552
5631 5631 5633 5633 5633 5634 5636 5637 5637 5638 5639 5640 5640 5641 5641 5642 5643 5643 5643 5644 5645 5646 5646 5647 5647 5648 5648 5648 5648 5649 5649 5649 5648 5648 5648 5648 5648 5647 5646 5645 5644 5643 5643 5642 5640 5638 5637 5635 5633 5631 5630 5628 5626 5623 5621 5619 5616 5614 5611 5609 5606 5604 5601 5598 5595 5592 5590 5587 5585 5582 5579 5576 5573 5570 5566 5563 5560 5556 5553 5551 5548 5545 5542 5541 5540
5626 5626 5627 5627 5628 5629 5630 5631 5631 5632 5633 5634 5635 5636 5636 5636 5637 5637 5637 5638 5639 5640 5640 5640 5642 5642 5642 5642 5642 5642 5642 5642 5642 5641 5641 5641 5641 5640 5639 5638 5637 5636 5635 5634 5632 5630 5629 5627 5625 5623 5621 5619 5617 5615 5613 5610 5608 5606 5604 5601 5599 5596 5594 5592 5589 5586 5584 5581 5578 5575 5572 5569 5566 5562 5558 5554 5550 5547 5543 5540 5537 5534 5531 5530 5529
5620 5620 5620 5621 5622 5623 5624 5625 5625 5626 5627 5628 5629 5630 5630 5630 5630 5631 5631 5632 5633 5634 5633 5634 5635 5636 5635 5635 5636 5636 5635 5635 5635 5635 5634 5634 5634 5633 5632 5630 5630 5629 5628 5626 5624 5622 5621 5619 5617 5616 5614 5612 5610 5608 5605 5603 5601 5599 5597 5595 5592 5590 5588 5586 5583 5581 5578 5575 5572 5569 5565 5562 5558 5555 5551 5547 5543 5539 5536 5533 5530 5527 5524 5521 5520
5613 5614 5614 5615 5616 5617 5617 5618 5619 5620 5621 5622 5622 5623 5624 5624 5624 5624 5625 5625 5626 5627 5627 5628 5628 5629 5628 5628 5629 5629 5628 5628 5628 5627 5627 5626 5626 5625 5624 5623 5622 5621 5620 5619 5617 5615 5613 5612 5610 5608 5607 5604 5603 5601 5598 5596 5595 5593 5591 5589 5586 5584 5582 5580 5577 5575 5572 5569 5566 5562 5559 5556 5553 5549 5546 5541 5538 5534 5531 5528 5525 5521 5518 5515 5514
5607 5608 5608 5609 5610 5610 5611 5612 5612 5613 5614 5615 5616 5616 5617 5617 5617 5618 5619 5619 5619 5620 5621 5622 5622 5622 5622 5622 5622 5622 5622 5621 5621 5620 5620 5619 5618 5618 5617 5616 5615 5614 5613 5611 5610 5608 5606 5605 5603 5602 5600 5598 5596 5594 5592 5591 5589 5587 5585 5583 5581 5578 5576 5574 5571 5569 5566 5563 5560 5557 5554 5552 5549 5545 5542 5538 5534 5531 5528 5524 5521 5518 5515 5513 5512
5602 5603 5603 5603 5604 5604 5605 5605 5606 5607 5608 5609 5610 5611 5611 5611 5611 5613 5614 5613 5613 5614 5615 5616 5616 5616 5616 5616 5616 5616 5616 5615 5614 5613 5613 5612 5611 5611 5610 5609 5609 5607 5606 5605 5603 5602 5601 5599 5597 5596 5594 5592 5590 5589 5587 5585 5584 5582 5580 5578 5576 5573 5571 5568 5566 5563 5560 5557 5555 5552 5550 5548 5545 5542 5539 5536 5532 5529 5526 5522 5520 5517 5514 5512 5511
5597 5598 5598 5598 5598 5598 5599 5599 5600 5601 5602 5602 5604 5604 5604 5604 5606 5607 5607 5607 5607 5608 5608 5609 5609 5610 5610 5610 5610 5610 5610 5609 5608 5608 5607 5606 5606 5605 5605 5604 5603 5602 5601 5600 5599 5597 5596 5594 5592 5591 5589 5587 5586 5584 5582 5580 5579 5577 5575 5573 5571 5568 5566 5563 5561 5558 5555 5552 5550 5548 5546 5544 5541 5538 5535 5533 5530 5528 5525 5521 5519 5517 5514 5512 5511
5589 5590 5591 5592 5592 5592 5593 5593 5594 5595 5596 5596 5597 5598 5598 5598 5600 5601 5601 5602 5602 5602 5603 5603 5603 5604 5604 5604 5604 5604 5604 5603 5603 5602 5602 5601 5601 5600 5600 5599 5598 5597 5596 5595 5594 5592 5590 5589 5587 5586 5584 5583 5581 5579 5577 5575 5574 5572 5570 5568 5566 5563 5561 5558 5556 5553 5550 5548 5546 5545 5543 5541 5538 5535 5532 5529 5528 5526 5524 5521 5518 5516 5515 5513 5512
5581 5582 5583 5584 5585 5586 5586 5587 5588 5589 5589 5590 5591 5592 5592 5593 5594 5595 5595 5596 5596 5597 5597 5597 5597 5598 5598 5599 5599 5599 5598 5598 5598 5597 5596 5596 5596 5595 5595 5594 5593 5592 5591 5590 5589 5587 5586 5584 5583 5581 5579 5578 5576 5574 5572 5571 5569 5567 5565 5563 5561 5559 5557 5554 5552 5549 5547 5545 5543 5541 5539 5537 5535 5532 5529 5527 5525 5524 5522 5520 5519 5517 5515 5514 5513
5573 5574 5575 5576 5577 5577 5578 5580 5581 5582 5583 5583 5585 5585 5586 5587 5588 5588 5589 5590 5590 5591 5591 5592 5592 5592 5593 5593 5593 5593 5593 5593 5592 5592 5591 5591 5590 5590 5589 5589 5588 5587 5586 5585 5584 5583 5581 5579 5578 5576 5574 5573 5571 5569 5568 5566 5564 5563 5561 5558 5556 5554 5552 5550 5548 5546 5544 5542 5540 5538 5536 5534 5532 5530 5527 5524 5522 5521 5520 5519 5518 5517 5516 5515 5514
5566 5567 5568 5568 5569 5569 5570 5573 5574 5575 5575 5577 5578 5578 5579 5581 5582 5582 5582 5583 5584 5585 5585 5586 5586 5587 5587 5587 5588 5588 5588 5588 5587 5587 5586 5586 5586 5585 5585 5584 5584 5583 5582 5581 5580 5578 5576 5575 5573 5571 5569 5568 5566 5565 5563 5562 5560 5558 5556 5554 5552 5550 5548 5546 5544 5542 5540 5539 5537 5535 5534 5532 5530 5528 5525 5522 5520 5519 5518 5517 5516 5516 5515 5515 5514
5561 5562 5562 5562 5563 5563 5564 5566 5568 5568 5568 5570 5572 5572 5573 5574 5575 5576 5577 5578 5578 5579 5580 5581 5581 5582 5582 5582 5583 5583 5583 5583 5583 5582 5582 5582 5582 5581 5581 5581 5580 5579 5578 5577 5575 5573 5571 5570 5568 5566 5565 5563 5562 5560 5559 5557 5556 5554 5552 5551 5549 5547 5545 5543 5541 5539 5537 5536 5534 5532 5531 5529 5528 5526 5524 5522 5519 5517 5517 5516 5515 5515 5514 5514 5514
5557 5558 5558 5558 5558 5559 5560 5561 5562 5562 5563 5565 5566 5567 5568 5569 5570 5571 5572 5572 5573 5574 5575 5576 5576 5577 5577 5578 5578 5578 5578 5578 5579 5579 5578 5578 5578 5578 5578 5577 5576 5575 5574 5572 5570 5568 5566 5565 5563 5561 5560 5558 5557 5556 5555 5553 5552 5550 5548 5547 5545 5544 5542 5540 5538 5536 5534 5533 5531 5530 5528 5526 5525 5524 5523 5521 5518 5516 5515 5514 5514 5513 5513 5513 5513
5554 5554 5554 5554 5555 5555 5555 5556 5557 5558 5559 5560 5561 5562 5563 5564 5565 5566 5567 5568 5569 5570 5570 5571 5572 5572 5573 5573 5574 5574 5575 5575 5575 5575 5575 5575 5575 5575 5574 5574 5573 5571 5570 5568 5566 5563 5562 5560 5558 5557 5555 5554 5553 5552 5550 5549 5548 5547 5545 5544 5542 5541 5539 5537 5535 5533 5532 5530 5528 5527 5525 5524 5523 5522 5521 5519 5518 5516 5514 5512 5512 5511 5511 5511 5511
5550 5550 5551 5551 5551 5551 5552 5552 5553 5554 5556 5556 5557 5558 5559 5560 5561 5562 5562 5563 5564 5565 5566 5567 5568 5568 5569 5570 5570 5571 5571 5572 5572 5572 5573 5573 5572 5572 5571 5570 5569 5567 5565 5563 5561 5559 5557 5555 5554 5552 5551 5550 5548 5548 5547 5545 5544 5543 5542 5541 5539 5538 5536 5535 5533 5531 5529 5527 5526 5524 5523 5522 5520 5519 5518 5517 5516 5515 5513 5512 5510 5509 5509 5509 5508
5547 5547 5548 5548 5548 5548 5548 5549 5550 5551 5552 5552 5553 5554 5555 5556 5557 5558 5559 5559 5560 5561 5562 5563 5564 5565 5566 5567 5567 5568 5568 5569 5569 5570 5570 5570 5569 5569 5568 5566 5565 5563 5560 5558 5556 5555 5553 5551 5550 5549 5547 5546 5545 5544 5543 5542 5541 5540 5539 5537 5536 5535 5534 5532 5531 5529 5527 5525 5523 5522 5521 5519 5518 5517 5516 5515 5514 5514 5513 5512 5510 5509 5508 5507 5507
5544 5544 5545 5545 5545 5545 5545 5545 5546 5547 5548 5548 5549 5551 5551 5552 5553 5554 5555 5556 5557 5558 5559 5560 5561 5562 5563 5564 5564 5565 5566 5566 5566 5567 5566 5566 5566 5565 5564 5562 5561 5559 5557 5555 5553 5551 5550 5548 5547 5545 5544 5543 5542 5541 5540 5539 5538 5537 5535 5534 5533 5532 5531 5530 5528 5527 5525 5523 5521 5520 5519 5518 5517 5515 5514 5513 5512 5512 5511 5511 5510 5508 5507 5506 5505